Regional Weather Roundup
Issued by NWS Northern Indiana

Home | Current Version | Previous Version | Graphics & Text | Print | Product List | Glossary On
Versions: 1 2 3 4 5 6 7 8 9 10 11 12 13 14 15 16 17 18 19 20 21 22 23 24 25 26 27 28 29 30 31 32 33 34 35 36 37 38 39 40 41 42 43 44 45 46 47 48 49 50
552
ASUS43 KIWX 220600
RWRIWX

KIWX WEATHER ROUNDUP
NATIONAL WEATHER SERVICE NORTHERN INDIANA
100 AM EST WED NOV 22 2017

NOTE: "FAIR" INDICATES FEW OR NO CLOUDS BELOW 12,000 FEET WITH NO
SIGNIFICANT WEATHER AND/OR OBSTRUCTIONS TO VISIBILITY.

* THESE STATIONS ARE NOT UNDER NWS QUALITY CONTROL. THEY ALSO MAY NOT
  REPORT WEATHER SUCH AS PRECIPITATION OR FOG.

INZ001>027-220700-
NORTHERN INDIANA

CITY           SKY/WX    TMP DP  RH WIND       PRES   REMARKS
MICHIGAN CITY* CLOUDY    32  23  69 NW6       30.18R WCI  26
KNOX*          CLOUDY    32  23  69 NW10G16   30.17R WCI  24
SOUTH BEND     CLOUDY    32  24  72 NW12      30.15R WCI  23
6HR MIN TEMP:  32; 6HR MAX TEMP:  34;

GOSHEN         CLOUDY    33  22  63 NW10      30.13R WCI  25
6HR MIN TEMP:  33; 6HR MAX TEMP:  36;

MONTICELLO*    CLEAR     27  20  74 NW12      30.18S WCI  17
6HR MIN TEMP:  27; 6HR MAX TEMP:  34;

WARSAW*        CLOUDY    32  25  74 NW9G17    30.14R WCI  24
AUBURN*        CLOUDY    34  27  75 W9        30.10R WCI  26
FORT WAYNE     CLOUDY    35  26  69 NW8       30.12R WCI  29
6HR MIN TEMP:  35; 6HR MAX TEMP:  39; 6HR PCP: TRACE;

PERU/GRISSOM   CLOUDY    31  24  76 NW10      30.15R WCI  22
6HR MIN TEMP:  30; 6HR MAX TEMP:  36;


$$
INZ028>050-220700-
CENTRAL INDIANA

CITY           SKY/WX    TMP DP  RH WIND       PRES   REMARKS
LAFAYETTE      CLEAR     28  22  78 N10       30.20R WCI  19
6HR MIN TEMP:  28; 6HR MAX TEMP:  34;

KOKOMO*        CLOUDY    31  24  75 NW13      30.16R WCI  21
6HR MIN TEMP:  30; 6HR MAX TEMP:  35;

MUNCIE*        CLEAR     31  26  82 W8        30.14R WCI  23
6HR MIN TEMP:  31; 6HR MAX TEMP:  43; 6HR PCP:  0.01;

INDIANAPOLIS   CLEAR     29  23  78 NW8       30.18R WCI  21
6HR MIN TEMP:  28; 6HR MAX TEMP:  39; 6HR PCP: TRACE;


$$
MIZ043>046-050>051-056>058-064>065-071>073-077>080-220700-
SOUTHWEST LOWER MICHIGAN

CITY           SKY/WX    TMP DP  RH WIND       PRES   REMARKS
BATTLE CREEK   CLOUDY    32  20  61 NW15      30.11R WCI  22
6HR MIN TEMP:  32; 6HR MAX TEMP:  35;

BENTON HARBOR  CLOUDY    35  22  58 NW6       30.15R WCI  30
6HR MIN TEMP:  35; 6HR MAX TEMP:  37;

COLDWATER*     CLOUDY    32  22  65 NW9       30.10R WCI  24
6HR MIN TEMP:  32; 6HR MAX TEMP:  36;

HILLSDALE*     CLOUDY    32  23  69 NW8       30.06R WCI  25
HOLLAND        CLOUDY    33  21  61 N9        30.14R WCI  25
6HR MIN TEMP:  33; 6HR MAX TEMP:  36;

GRAND RAPIDS   CLOUDY    32  21  64 NW12      30.12R WCI  23
6HR MIN TEMP:  32; 6HR MAX TEMP:  36; 6HR PCP: TRACE;

KALAMAZOO      CLOUDY    32  19  58 N10       30.12R WCI  24
6HR MIN TEMP:  32; 6HR MAX TEMP:  36;

STURGIS*       CLOUDY    32  24  72 N8        30.11R WCI  25
6HR MIN TEMP:  32; 6HR MAX TEMP:  34;

THREE RIVERS*  CLOUDY    34  24  66 N8        30.12R WCI  27
6HR MIN TEMP:  34; 6HR MAX TEMP:  37;


$$
OHZ001>008-015>018-024>025-220700-
NORTHWEST OHIO

CITY           SKY/WX    TMP DP  RH WIND       PRES   REMARKS
DEFIANCE       CLOUDY    35  23  61 N10       30.09R WCI  27
6HR MIN TEMP:  35; 6HR MAX TEMP:  39; 6HR PCP:  0.01;

FINDLAY        CLOUDY    36  28  73 W13       30.06R
6HR MIN TEMP:  36; 6HR MAX TEMP:  44; 6HR PCP: TRACE;

TOLEDO EXPRESS CLOUDY    36  29  75 NW10      30.07R
6HR MIN TEMP:  36; 6HR MAX TEMP:  41; 6HR PCP:  0.02;

TOLEDO METCALF CLOUDY    36  28  73 NW10      30.07R
6HR MIN TEMP:  36; 6HR MAX TEMP:  41; 6HR PCP:  0.02;

LIMA           CLOUDY    33  29  85 NW12      30.07R WCI  24
6HR MIN TEMP:  33; 6HR MAX TEMP:  44; 6HR PCP:  0.01;


$$
AND FOR LAKE MICHIGAN COASTAL AND OPEN LAKE BUOY OBSERVATIONS

STATION/POSITION TEMP    WIND        PRES    VSBY  WAVE
                 AIR SEA DIR/SP/G                  HT/PER
                 (F)     (DEG/KT/KT) (MB)    (MI)  (FT/S)
CALUMET HARBOR    28     300/ 10/ 18 1022.3R
MICHIGAN CITY     33     320/ 22/ 25   N/A
BURNS HARBOR      33     330/ 18/ 22 1022.4R
SAINT JOSEPH      36     350/ 14/ 21 1021.0
SOUTH LAKE BUOY   32 47  340/ 17/ 21 1021.8          6/ 7

$$
&&




USA.gov is the U.S. government's official web portal to all federal, state and local government web resources and services.